Regional Weather Roundup
Issued by NWS Midland/Odessa, TX

Skip options and go directly to product.
Home | Oldest Version | Previous Version | Current Version | All | Text Only | Save Text | Print | Product List | Glossary On

Skip product version selection by date and time.   
786
ASUS44 KMAF 302310
RWRMAF
MIDLAND AREA WEATHER ROUNDUP
NATIONAL WEATHER SERVICE MIDLAND TX
600 PM CDT SAT JUL 30 2016

...IN SOUTHWEST TEXAS AND SOUTHEAST NEW MEXICO...

CITY           SKY/WX    TMP DP  RH WIND       PRES   REMARKS
ALPINE         CLOUDY    71  62  72 W9        30.13F
ANDREWS        FAIR      94  54  25 S16G23    29.97F
ARTESIA        SUNNY     95  54  24 SE15      29.95F
BIG SPRING     SUNNY     98  60  27 SE12G18   29.97F
CARLSBAD       MOSUNNY   94  53  25 SE10G22   29.92F
DRYDEN           N/A     93  64  38 E15G23    29.92F
FORT STOCKTON  SUNNY     96  56  26 S15       29.94F
GUAD PASS      MOSUNNY   87  48  25 E7        30.11F
HOBBS          MOSUNNY   93  50  22 SE12G21   29.99F
MARFA          RAIN      70  59  68 SE18G33   30.14R
MIDLAND AIRPK  SUNNY     97  54  23 S15       29.96F
MIDLAND INTL   SUNNY     96  56  26 S18       29.95F
ODESSA         SUNNY     94  56  27 S9G23     29.97F
PECOS          SUNNY     98  56  24 E15G21    29.89F
PRESIDIO       FAIR      93  60  33 SE8       29.93F
SEMINOLE       MOSUNNY   95  52  23 S9G20     29.98F
SNYDER           N/A     95  58  29 S9        29.95F
WINK           MOSUNNY   97  57  26 E14G21    29.91F
$$
...OTHER STATIONS IN TEXAS...

CITY           SKY/WX    TMP DP  RH WIND       PRES   REMARKS
ABILENE        SUNNY     96  60  30 SW14G21   29.93F
AMARILLO       SUNNY     91  58  32 S17       29.99F
AUSTIN         MOSUNNY   95  69  42 S8G18     29.93F HX 100
BROWNSVILLE    MOSUNNY   92  74  55 SE24      29.94F HX 101
CORPUS CHRISTI MOSUNNY   91  74  57 SE17G24   29.94S HX 100
DALLAS FTW     MOSUNNY   98  62  30 S15       29.89F
DEL RIO        MOSUNNY   98  63  31 SE15      29.88F HX 100
EL PASO        MOSUNNY   94  54  25 VRB3      29.95F
HOUSTON INT    CLOUDY    87  68  52 S10       29.96S
LUBBOCK        MOSUNNY   93  54  26 S15G21    29.98F
SAN ANGELO     SUNNY     98  58  26 S14       29.92F
SAN ANTONIO    MOSUNNY   95  64  35 S10G20    29.95F
WACO           SUNNY     98  63  31 S13       29.91F HX 100
WICHITA FALLS  NOT AVBL
$$
...OTHER LOCATIONS IN NEW MEXICO...

CITY           SKY/WX    TMP DP  RH WIND       PRES   REMARKS
ALAMAGORDO     MOSUNNY   93  54  26 CALM      29.99S
ALBUQUERQUE    PTSUNNY   92  43  18 CALM      30.02F
CANNON AFB     SUNNY     91  53  27 S15       30.00F
CLOVIS         MOSUNNY   91  57  31 S12G21    30.01F
HOLLOMAN AFB   PTSUNNY   93  51  23 VRB1      29.95F
ROSWELL        SUNNY     97  52  21 S13G26    29.95F
RUIDOSO          N/A     75  50  41 W6        30.22F
SANTA FE       CLOUDY    86  41  20 W6        30.10F
TRUTH OR CONSE CLOUDY    91  49  23 VRB7      30.01F
TUCUMCARI      SUNNY     97  48  18 S18G30    29.93F
$$

USA.gov is the U.S. government's official web portal to all federal, state and local government web resources and services.